Location: Charlottetown
(46.2330°N, 63.1330°W)
Time: 13:18:44
(UTC-04:00)

Daily predictions for brighter satellites

Satellite Brightness Start Highest point End
(mag) Time Altitude Azimuth Time Altitude Azimuth Time Altitude Azimuth
Cosmos 2082 Rocket 4.2 18:13:04 10° WSW 18:17:48 26° NW 18:22:34 10° N
SL-16 R/B 2.5 18:14:33 10° NNW 18:20:15 75° WSW 18:25:53 10° SSE
ALOS 3.1 18:16:53 10° SE 18:20:53 29° ENE 18:24:52 10° N
NOSS 2-2 (E) 4.4 18:17:45 10° WSW 18:21:52 54° NW 18:26:50 10° NNE
Spot 2 Rocket 4.5 18:19:37 10° ESE 18:23:46 26° ENE 18:27:56 10° N
Okean 2 Rocket 3.5 18:24:50 10° SSW 18:29:17 70° W 18:33:43 10° N
Cosmos 1709 Rocket 4.2 18:23:53 10° SSE 18:29:47 47° E 18:35:39 10° NNE
Cosmos 1340 3.0 18:26:39 10° N 18:30:19 43° ENE 18:33:56 10° SSE
USA 215 4.0 18:27:01 10° NE 18:33:14 48° NNW 18:39:26 10° W
FREGAT/IRIS 3.0 18:31:17 10° SSE 18:34:14 43° ENE 18:37:13 10° N
Cosmos 2322 Rocket 3.1 18:31:12 10° NW 18:36:40 54° WSW 18:42:07 10° S
Helios 1B rocket 4.4 18:41:53 11° ESE 18:41:53 11° ESE 18:42:12 10° ESE
Cosmos 1954 Rocket 4.2 18:36:20 10° S 18:41:19 49° ESE 18:46:22 10° NNE
Meteor 1-20 Rocket 4.4 18:37:16 10° S 18:43:07 88° WNW 18:49:01 10° N
Meteor 1-28 Rocket 3.4 18:40:10 10° N 18:43:59 78° WNW 18:47:48 10° SSW
Meteor 1-19 Rocket 4.4 18:38:55 10° N 18:44:29 55° ENE 18:50:07 10° SSE
TSX-5 3.4 18:43:24 10° S 18:46:28 49° ESE 18:49:40 10° NE
FENGYUN 3A 3.8 18:42:37 10° SE 18:47:51 52° ENE 18:53:06 10° N
Cosmos 2151 Rocket 3.6 18:43:52 10° S 18:48:23 88° E 18:52:57 10° N
Okean 1 Rocket 3.7 18:45:31 10° SSE 18:49:35 35° E 18:53:41 10° NNE
SJ-6B 2.7 18:45:40 10° SSE 18:49:39 73° ENE 18:53:35 10° N
Genesis I 3.6 18:45:51 10° NNW 18:49:40 45° NE 18:53:02 13° ESE
HJ-1C 3.7 18:46:59 10° SE 18:50:12 43° ENE 18:53:26 10° N
Tiangong 2 3.8 18:49:02 10° WSW 18:50:44 14° SSW 18:52:25 10° S
USA 186 3.8 18:53:11 12° NE 18:53:11 12° NE 18:53:44 10° NE
Gbstr 26 Del rocket 3.8 18:49:11 10° SSW 18:52:24 26° SE 18:54:17 18° E
Cosmos 2322 3.7 18:47:10 10° NNW 18:52:55 75° ENE 18:58:38 10° SSE
Cosmos 1238 Rocket 1.9 18:54:14 10° N 18:57:15 67° E 19:00:11 10° SSE
NOAA 12 4.5 18:54:05 10° S 18:59:24 71° WSW 19:04:45 10° NNW
Meteor 1-13 Rocket 4.1 18:55:54 10° N 19:01:29 83° E 19:07:08 10° SSE
GEOS 3 Rocket 4.1 18:58:46 10° NE 19:03:41 40° ESE 19:08:36 10° S
Cosmos 1025 Rocket 3.5 19:02:50 10° N 19:06:57 38° ENE 19:11:04 10° SE
COSMOS 2428 2.8 19:02:33 10° NNW 19:08:09 55° ENE 19:13:31 11° SE
Meteor 1-23 Rocket 4.4 19:02:38 10° N 19:08:19 51° ENE 19:13:54 10° SSE
Cosmos 2237 4.2 19:02:43 10° NNW 19:08:29 68° ENE 19:14:10 10° SE
SL-19 R/B 4.4 19:02:59 10° SSE 19:08:39 70° ENE 19:14:43 10° NNW
Cosmos 2333 4.4 19:04:00 10° NNW 19:09:35 50° ENE 19:14:20 14° SE
Cosmos 405 Rocket 4.1 19:06:29 10° NNE 19:09:42 22° ENE 19:09:44 22° ENE
Meteor 2-4 Rocket 3.6 19:05:22 10° N 19:10:56 64° ENE 19:16:18 10° SSE
CZ-2D R/B 3.6 19:08:11 13° SE 19:11:15 40° ENE 19:14:51 10° N
Cosmos 2237 Rocket 3.4 19:07:29 10° N 19:12:07 25° NE 19:14:01 21° ENE
Okean 1-7 Rocket 3.6 19:08:11 10° N 19:12:41 58° ENE 19:17:06 10° SSE
H-2A R/B 2.6 19:12:57 10° SSE 19:16:36 61° ENE 19:20:20 10° N
Cosmos 1536 2.9 19:12:43 10° S 19:16:37 53° E 19:20:30 10° NNE
Cosmos 1023 Rocket 4.3 19:12:47 10° SSW 19:17:52 78° ESE 19:23:01 10° NNE
NOSS 0 Rocket 4.4 19:15:49 10° NNW 19:21:33 39° NE 19:24:22 26° E
Cosmos 1633 3.0 19:18:50 10° SSW 19:22:30 64° W 19:26:11 10° N
Cosmos 1741 Rocket 4.0 19:19:37 10° S 19:24:42 55° ESE 19:29:48 10° NNE
Cosmos 2360 Rocket 2.9 19:22:01 10° NW 19:27:33 54° WSW 19:33:02 10° S
Cosmos 1818 4.2 19:22:32 10° SW 19:27:54 58° NW 19:33:18 10° NNE
Cosmos 2219 Rocket 2.5 19:24:03 10° NNW 19:29:27 47° ENE 19:31:48 30° ESE
Cosmos 2219 3.3 19:25:53 10° S 19:31:27 52° ESE 19:37:00 10° NE
Cosmos 1570 Rocket 4.1 19:32:20 10° NNW 19:37:35 77° WSW 19:42:48 10° SSE
Meteor 1-11 Rocket 4.1 19:34:44 10° SSW 19:40:32 72° WNW 19:46:29 10° N
SL-16 R/B 3.6 19:41:10 10° N 19:45:26 21° NE 19:45:26 21° NE
Cosmos 1140 Rocket 4.0 19:43:23 10° SW 19:48:27 59° WNW 19:53:35 10° NNE
Cosmos 1610 Rocket 4.4 19:43:30 10° S 19:49:35 58° E 19:55:37 10° NNE
Resurs 01 Rocket 2.5 19:45:48 10° S 19:50:05 51° W 19:54:24 10° NNW
Spot 1 4.0 19:53:24 29° S 19:55:23 76° WSW 19:59:34 10° NNW
Cosmos 2327 Rocket 4.4 19:49:17 10° S 19:55:32 86° E 20:01:55 10° N
Cosmos 614 Rocket 4.2 19:51:15 10° SSW 19:56:17 66° WNW 20:01:22 10° NNE
ALOS 3.9 19:53:57 10° SSW 19:58:13 35° W 20:02:31 10° NNW
Cosmos 468 Rocket 3.9 19:53:11 10° NNW 19:58:24 65° ENE 19:59:15 56° ESE
Cosmos 2333 Rocket 2.1 19:57:19 10° NNW 20:03:05 67° ENE 20:04:11 55° ESE
SJ-11-01 4.3 20:03:21 61° ENE 20:03:21 61° ENE 20:07:49 10° N
USA 229 DEB 3.8 19:56:04 10° NW 20:03:13 82° SW 20:07:02 31° SSE
USA 229 3.8 19:56:10 10° NW 20:03:19 82° SW 20:07:06 31° SSE
Helios 1A 3.4 20:04:17 31° S 20:06:06 61° W 20:10:13 10° NNW
Cosmos 1980 3.6 20:05:22 10° NNW 20:10:59 63° ENE 20:11:16 62° ENE
Cosmos 2074 Rocket 4.3 20:08:50 10° SSW 20:15:02 65° W 20:21:19 10° N
USA 215 4.3 20:12:28 24° NE 20:15:25 35° N 20:21:11 10° WNW
NOSS 3-1 (A) 4.2 20:08:35 10° NW 20:15:49 55° NE 20:17:30 48° E
Cosmos 1814 Rocket 3.9 20:10:45 10° NNW 20:15:32 66° NE 20:15:32 66° NE
Helios 1B rocket 3.6 20:12:15 10° N 20:18:13 32° SSW 20:20:31 10° SSW
Cosmos 2184 Rocket 4.4 20:11:45 10° SSW 20:18:00 65° W 20:24:15 10° N
Envisat 2.8 20:18:30 82° SE 20:18:42 86° ENE 20:23:49 10° NNW
ATLAS 2AS CENTAUR R/B 4.0 20:14:02 10° NW 20:21:03 30° NNE 20:22:52 28° NE
Okean 2 4.2 20:17:19 10° NNW 20:21:21 49° W 20:22:00 44° SW
ERS-1 Rocket 3.7 20:25:25 42° NNE 20:25:25 42° NNE 20:28:55 10° N
Cosmos 1892 Rocket 4.2 20:25:18 10° NNW 20:29:15 53° WNW 20:29:15 53° WNW
Nadezhda 3 Rocket 4.0 20:28:48 10° N 20:34:58 78° W 20:36:37 51° S
NOSS 3-1 (C) 3.9 20:28:06 10° NW 20:35:35 80° NE 20:36:56 64° ESE
H-2A R/B 4.2 20:43:45 15° NNE 20:43:45 15° NNE 20:44:58 10° N
Cosmos 2341 Rocket 4.2 20:42:07 60° NNE 20:42:07 60° NNE 20:47:18 10° N
Cosmos 2154 Rocket 4.1 20:40:36 10° SSW 20:46:56 72° W 20:53:18 10° N
Cosmos 2237 Rocket 2.7 20:51:01 10° NNW 20:55:53 59° WNW 20:55:53 59° WNW
Cosmos 2219 Rocket 3.7 21:08:24 10° NW 21:13:10 30° WSW 21:13:36 29° WSW
SL-16 R/B 3.8 21:24:33 10° NNW 21:27:20 30° NNW 21:27:20 30° NNW
Cosmos 2333 Rocket 4.3 21:42:38 10° NW 21:46:14 20° W 21:46:14 20° W
ATLAS 2AS CENTAUR R/B 4.0 22:05:18 10° NW 22:10:17 41° NNW 22:10:17 41° NNW
